DECAYED

THORAD AGENA D DEB, 4649 (Decayed)

Orbit data source: Space-Track

THORAD AGENA D DEB, 4649 was space debris in LEO originally from a launch on Wed, 08 Apr 1970 UTC launched from the Air Force Western Test Range (AFWTR). Debris objects in space refer to the collection of defunct objects orbiting the Earth. Examples of debris include non-operational satellites, rocket bodies, and fragments generated from explosions, collisions, or faulty payload assembly.

Not visible in the next 10 days
Identifier
4649, 1970-025AH
Orbit
Decayed
Last TLE update
5 months ago
Origin
Manufacturer
Unknown
Mission
Decayed spacecraft
Bus & Motor
Unknown
Mass
Unknown
Launch date (UTC)
1970-04-08 (55 years ago)
Launch vehicle
Unknown
Launch site
Air Force Western Test Range (AFWTR)
Object type
Payload
Rocket body
Debris
Shape & HBR
Unknown
Radar Cross Section
Small (<0.1 m²)

Expand to show TLE details & history

TLE from 5 months ago
0 THORAD AGENA D DEB
1  4649U 70025AH  24339.91189580  .19774944  41835-5  29124-2 0  9990
2  4649  99.8078 214.2988 0009216 148.4530 211.7312 16.34422091865551
Epoch: 2024-12-04T21:53Z
Definitive object data (Epoch: 2024-12-04T21:53:07.797Z)
Latitude
-0.00005°
Longitude
171.81607°
Altitude
188.987 km
Speed
7.79 km/s
True Right ascension
14h 17m 11s
True Declination
0° 00' 00"
Sunlit
Object was in daylight at TLE epoch
Visualization observer readout
Visualization observer readout
Orbital elements
Apogee altitude
183.664 km
Perigee altitude
171.581 km
Semi-major axis
6,555.76 km
Eccentricity
0.0009216
Inclination
99.8078°
RAAN
214.2988°
Arg. of periapsis
148.453°
True anomaly
211.67571°
Mean anomaly
211.7312°
Eccentric anomaly
211.70345°
Mean motion
4.08892 °/min
BSTAR
0.0029124
Orbital period
88.04 mins
Loading maneuver chart data...
Loading SW <> Apogee altitude chart data...

THORAD AGENA D DEB Visibility forecast

Observer location: undefined°, undefined°

This satellite is decayed
Span
Click to sort rows by Start time (UTC) header in descending order
Start Az.
Max El. time (UTC)
Max El. Az.
Max El.
End time (UTC)
End Az.
|